GOKTURK 1A

Last updated on Sun Apr 12 2026 00:02:35 GMT+0000 (Coordinated Universal Time)

1 41875U 16073A 26101.55216576 .00000290 00000+0 65935-4 0 9991 2 41875 98.1316 357.2454 0001387 81.2456 278.8903 14.62784473499083
UTC large
Height (km)
Speed (km/s)
/
Latitude / Longitude
Inclination (degrees)
Orbital Period (minutes)
Azimuth
Elevation
Range (km)
Doppler Factor

Next 0 passes for location: London (51.5072 / 0.1276)

Sorry there are no passes over London.
GOKTURK 1A